Location: McFarlands Corners
(41.4117°N, 81.3382°W)
Time: 16:24:31
(UTC+00:00)

SR - Pass Details

Date: 25 February 2026
Orbit: 572 x 849 km, 66.7° (Epoch: 12 March)

Event Time Altitude Azimuth Distance (km) Brightness Sun altitude
Rises 15:02:32 0° 344° (NNW) 3,075 ? 28.3°
Reaches altitude 10° 15:06:04 10° 11° (N) 2,221 ? 28.7°
Maximum altitude 15:08:35 14° 41° (NE) 2,024 ? 29.0°
Drops below altitude 10° 15:11:10 10° 70° (ENE) 2,306 ? 29.4°
Sets 15:14:58 0° 96° (E) 3,291 ? 29.9°
